OE3UKW Weather Reports


Display with metric or nautical units.
time (UTC)temp
F
wind
direction
speed
MPH
gust
MPH
rain 1hr
in
rain 24hr
in
rain mn
in
humidity
%
barometer
mb
20260505152110 79 198 21.0 34.0 0.00 0.00 0.00 26 1006.4
20260505151110 79 171 18.0 32.0 0.00 0.00 0.00 26 1006.3
20260505150110 80 165 19.0 39.0 0.00 0.00 0.00 24 1006.3
20260505140110 82 173 15.0 26.0 0.00 0.00 0.00 23 1006.9
20260505130110 82 167 13.0 33.0 0.00 0.00 0.00 17 1007.3
20260505124110 82 161 22.0 30.0 0.00 0.00 0.00 17 1007.8
20260505123110 81 192 18.0 30.0 0.00 0.00 0.00 18 1007.8
20260505122109 81 130 17.0 29.0 0.00 0.00 0.00 19 1008.1
20260505120111 80 166 9.0 25.0 0.00 0.00 0.00 23 1008.3
20260505115111 80 175 15.0 23.0 0.00 0.00 0.00 22 1008.5
20260505114111 80 159 15.0 30.0 0.00 0.00 0.00 21 1008.7
20260505113111 80 184 16.0 29.0 0.00 0.00 0.00 21 1008.6
20260505112111 79 175 14.0 25.0 0.00 0.00 0.00 25 1008.8
20260505111111 78 152 19.0 26.0 0.00 0.00 0.00 25 1008.8
20260505110111 78 138 19.0 24.0 0.00 0.00 0.00 25 1009.0
20260505102111 76 130 14.0 23.0 0.00 0.00 0.00 31 1009.3
20260505101110 75 145 16.0 18.0 0.00 0.00 0.00 32 1009.5
20260505100110 74 115 13.0 20.0 0.00 0.00 0.00 32 1009.7
20260505095110 74 140 12.0 24.0 0.00 0.00 0.00 34 1010.0
20260505094110 73 141 12.0 19.0 0.00 0.00 0.00 35 1010.1
20260505093110 71 146 9.0 18.0 0.00 0.00 0.00 35 1010.1
20260505092110 71 156 7.0 14.0 0.00 0.00 0.00 37 1010.2
20260505091110 70 165 7.0 14.0 0.00 0.00 0.00 39 1010.2
20260505090110 70 150 12.0 17.0 0.00 0.00 0.00 38 1010.2
20260505085110 70 174 13.0 19.0 0.00 0.00 0.00 38 1010.3
20260505084110 70 175 11.0 22.0 0.00 0.00 0.00 37 1010.3
20260505083110 69 146 11.0 16.0 0.00 0.00 0.00 38 1010.4
20260505082110 68 169 11.0 15.0 0.00 0.00 0.00 40 1010.4
20260505081110 66 155 9.0 15.0 0.00 0.00 0.00 44 1010.4
20260505080110 65 162 9.0 13.0 0.00 0.00 0.00 42 1010.5
20260505075110 65 154 10.0 12.0 0.00 0.00 0.00 44 1010.5
20260505074110 65 147 9.0 14.0 0.00 0.00 0.00 43 1010.4
20260505073110 65 176 12.0 15.0 0.00 0.00 0.00 42 1010.6
20260505072110 66 162 12.0 15.0 0.00 0.00 0.00 42 1010.6
20260505071110 66 163 8.0 14.0 0.00 0.00 0.00 41 1010.6
20260505070110 65 119 10.0 14.0 0.00 0.00 0.00 42 1010.6
20260505065110 64 175 9.0 12.0 0.00 0.00 0.00 43 1010.6
20260505064110 64 140 10.0 16.0 0.00 0.00 0.00 43 1010.6
20260505063110 62 120 13.0 16.0 0.00 0.00 0.00 45 1010.6
20260505062110 62 170 8.0 15.0 0.00 0.00 0.00 46 1010.6
20260505061110 60 168 11.0 15.0 0.00 0.00 0.00 47 1010.5
20260505060110 59 134 7.0 9.0 0.00 0.00 0.00 51 1010.5
20260505055110 58 138 9.0 11.0 0.00 0.00 0.00 52 1010.4
20260505054110 57 169 6.0 8.0 0.00 0.00 0.00 52 1010.4
20260505053110 56 156 4.0 8.0 0.00 0.00 0.00 54 1010.5
20260505052110 55 155 3.0 6.0 0.00 0.00 0.00 56 1010.5
20260505051110 54 180 4.0 7.0 0.00 0.00 0.00 56 1010.5
20260505050110 54 172 5.0 8.0 0.00 0.00 0.00 55 1010.3
20260505041110 52 173 8.0 10.0 0.00 0.00 0.00 55 1010.3
20260505040110 51 152 4.0 8.0 0.00 0.00 0.00 56 1010.2
20260505035110 51 143 6.0 9.0 0.00 0.00 0.00 56 1010.3
20260505034109 51 179 5.0 8.0 0.00 0.00 0.00 57 1010.3
20260505033109 50 360 5.0 9.0 0.00 0.00 0.00 58 1010.3
20260505032110 49 162 5.0 7.0 0.00 0.00 0.00 58 1010.3
20260505031110 49 150 4.0 8.0 0.00 0.00 0.00 57 1010.3
20260505030110 50 150 5.0 6.0 0.00 0.00 0.00 56 1010.4
20260505025109 50 161 0.0 0.0 0.00 0.00 0.00 56 1010.6
20260505024109 50 161 0.0 2.0 0.00 0.00 0.00 55 1010.5
20260505023109 51 161 1.0 4.0 0.00 0.00 0.00 55 1010.6
20260505022109 51 161 5.0 6.0 0.00 0.00 0.00 55 1010.6
20260505021109 51 167 5.0 6.0 0.00 0.00 0.00 55 1010.7
20260505020109 51 145 3.0 3.0 0.00 0.00 0.00 54 1010.9
20260505015109 51 144 2.0 3.0 0.00 0.00 0.00 53 1010.8
20260505014109 52 152 4.0 5.0 0.00 0.00 0.00 51 1010.8
20260505013109 53 144 4.0 5.0 0.00 0.00 0.00 50 1010.9
20260505012109 54 156 4.0 5.0 0.00 0.00 0.00 49 1011.0
20260505011109 55 129 4.0 8.0 0.00 0.00 0.00 48 1011.0
20260505010109 56 138 3.0 7.0 0.00 0.00 0.00 47 1011.2
20260505005110 56 136 6.0 8.0 0.00 0.00 0.00 46 1011.2
20260505004110 57 149 3.0 6.0 0.00 0.00 0.00 45 1011.3
20260505003110 58 155 7.0 9.0 0.00 0.00 0.00 44 1011.1
20260505002110 58 117 6.0 9.0 0.00 0.00 0.00 44 1011.4
20260505001110 58 121 9.0 11.0 0.00 0.00 0.00 43 1011.4
20260505000110 59 132 7.0 8.0 0.00 0.00 0.00 42 1011.5
20260504235110 59 127 5.0 8.0 0.00 0.00 0.00 42 1011.6
20260504234109 60 151 6.0 10.0 0.00 0.00 0.00 41 1011.8
20260504233109 60 152 5.0 8.0 0.00 0.00 0.00 40 1012.0
20260504232109 61 146 6.0 10.0 0.00 0.00 0.00 40 1011.8
20260504231109 61 134 3.0 8.0 0.00 0.00 0.00 39 1011.8
20260504230109 61 146 6.0 10.0 0.00 0.00 0.00 39 1011.8
20260504225109 61 143 11.0 14.0 0.00 0.00 0.00 39 1011.9
20260504224109 61 158 8.0 12.0 0.00 0.00 0.00 38 1012.1
20260504223109 62 150 6.0 11.0 0.00 0.00 0.00 38 1012.2
20260504222109 62 130 7.0 11.0 0.00 0.00 0.00 37 1012.2
20260504221109 62 126 7.0 11.0 0.00 0.00 0.00 36 1012.2
20260504220109 63 147 9.0 14.0 0.00 0.00 0.00 36 1012.2
20260504215109 63 155 11.0 14.0 0.00 0.00 0.00 35 1012.3
20260504214109 63 136 7.0 14.0 0.00 0.00 0.00 35 1012.2
20260504213109 63 130 10.0 16.0 0.00 0.00 0.00 35 1012.3
20260504212109 63 150 9.0 12.0 0.00 0.00 0.00 35 1012.4
20260504211109 63 126 7.0 9.0 0.00 0.00 0.00 35 1012.5
20260504210109 63 134 6.0 10.0 0.00 0.00 0.00 34 1012.5
20260504205109 64 122 5.0 10.0 0.00 0.00 0.00 34 1012.5
20260504204109 64 138 8.0 13.0 0.00 0.00 0.00 34 1012.5
20260504203109 64 138 10.0 13.0 0.00 0.00 0.00 34 1012.5
20260504202114 64 154 9.0 13.0 0.00 0.00 0.00 33 1012.6
20260504201114 64 153 8.0 11.0 0.00 0.00 0.00 33 1012.5
20260504200114 65 146 8.0 12.0 0.00 0.00 0.00 33 1012.7
20260504195114 65 142 7.0 11.0 0.00 0.00 0.00 32 1012.7
20260504194114 65 148 7.0 12.0 0.00 0.00 0.00 32 1012.7
20260504193114 65 128 9.0 12.0 0.00 0.00 0.00 31 1012.6
20260504192114 66 130 9.0 12.0 0.00 0.00 0.00 31 1012.7
20260504191114 67 140 8.0 13.0 0.00 0.00 0.00 30 1012.8
20260504190114 67 142 9.0 12.0 0.00 0.00 0.00 29 1012.7
20260504185114 68 114 8.0 9.0 0.00 0.00 0.00 28 1012.6
20260504184114 69 115 8.0 11.0 0.00 0.00 0.00 26 1012.6
20260504183114 69 123 7.0 11.0 0.00 0.00 0.00 26 1012.5
20260504182114 70 132 8.0 11.0 0.00 0.00 0.00 26 1012.5
20260504181113 71 125 8.0 11.0 0.00 0.00 0.00 25 1012.5
20260504180113 71 119 8.0 11.0 0.00 0.00 0.00 25 1012.4
20260504175113 72 129 10.0 13.0 0.00 0.00 0.00 24 1012.4
20260504174114 73 139 9.0 12.0 0.00 0.00 0.00 24 1012.4
20260504173115 74 123 6.0 11.0 0.00 0.00 0.00 22 1012.5
20260504172113 74 137 10.0 14.0 0.00 0.00 0.00 21 1012.4
20260504171113 75 142 9.0 13.0 0.00 0.00 0.00 20 1012.5
20260504170113 76 142 14.0 19.0 0.00 0.00 0.00 19 1012.7
20260504160113 79 191 12.0 20.0 0.00 0.00 0.00 17 1012.7